Aérodrome :
LOGIN :

S'inscrire | Disclaimer

   EN    FR    IT 

 










Légende :    VFR   VFR Marginal   IFR   IFR Intensif   IFR Très Intensif
Visi : 
Plafond : 
>= 8 km
>= 3000ft
5 à 8 km
1000 à 3000 ft
1500m à 5 km
500 à 1000 ft
800 à 1500m
200 à 500 ft
< 800m
< 200 ft
Symboles :   Orages  Brouillard  Fortes neiges  Fortes précipitations  Vent > 20 kt
SIGMETs :   Divers  Orages  Givrage  Turbulence  Onde Orograph.  Cendres Volcan.






- Altitude de l'aérodrome : 915 ft
- Code IATA : LUG


LSZA - Lugano

DERNIER METAR :
  • 191050Z AUTO 18003KT 160V230 9999 NSC 22/15 Q1021

METARs EXPIRÉS :
  • 191020Z AUTO 19003KT 9999 FEW120 22/15 Q1021
  • 190950Z VRB02KT 9999 FEW050 OVC120 22/14 Q1021 NOSIG
  • 190920Z 20003KT 9999 FEW050 22/14 Q1021 NOSIG
  • 190850Z VRB01KT 9000 FEW045 SCT060 21/16 Q1021 NOSIG

TAF TAF LSZA
Valide du 19 à 09h jusqu'au 19 à 18h UTC


190825Z 1909/1918 VRB03KT 9999 SCT050
TEMPO 1910/1918 CAVOK
ATIS : +41 22 417 40 88



MET'MAP, la Météo Aéronautique d'un coup d'oeil ! - Copyright ORBIFLY Décembre 2007 - Disclaimer

ORBIFLY MET'MAP TEAM :

Programmation & Développement : Alexandra Zaïnal
Sur une idée originale de : Baudouin d'Aumeries
Assistance à la programmation : Marc-Olivier Méhu
Soutien technique & logistique : Manuel Goepfert

Contact : metmap@orbifly.com




SOURCES & CREDITS :

   NOAA